Grand Island, NE

12:19 PM CDT on July 22, 2017 (GMT -0500)
Central Nebraska Regional

Weather History for KGRI - November, 2013

Change the Weather History Date:

Friday, November 1, 2013

  Actual Average Record
Temperature  
Mean Temperature 48 °F 46 °F  
Max Temperature 60 °F 58 °F 80 °F (1910)
Min Temperature 36 °F 34 °F 12 °F (1991)
Degree Days  
Heating Degree Days 17 20  
Month to date heating degree days 17 20  
Since 1 July heating degree days 444 543  
Cooling Degree Days 0 0  
Month to date cooling degree days 0 0  
Year to date cooling degree days 1265 1034  
Moisture  
Dew Point 34 °F    
Average Humidity 59    
Maximum Humidity 79    
Minimum Humidity 39    
Precipitation  
Precipitation T in 0.05 in 2.12 in (1928)
Month to date precipitation T 0.05  
Year to date precipitation 25.84 24.91  
Snow  
Snow 0.00 in 0.10 in 2.20 in (1991)
Month to date snowfall 0.0 0.1  
Since 1 July snowfall 0.0 1.2  
Since 1 September snowfall 0.0 1.2  
Snow Depth 0.00 in    
Sea Level Pressure  
Sea Level Pressure 29.89 in    
Wind  
Wind Speed 16 mph (WNW)    
Max Wind Speed 37 mph    
Max Gust Speed 49 mph    
Visibility 10 miles    
Events Rain    
T = Trace of Precipitation, MM = Missing Value Source: NWS Daily Summary

Daily Weather History Graph

Daily Weather History Graph

Search for Another Location

Airport or City:

Trip Planner

Search our weather history database for the weather conditions in past years. The results will help you decide how hot, cold, wet, or windy it might be!

Date:

Astronomy

Nov. 01, 2013 Rise Set
Actual Time 8:04 AM CDT 6:28 PM CDT
Civil Twilight 7:35 AM CDT 6:57 PM CDT
Nautical Twilight 7:03 AM CDT 7:29 PM CDT
Astronomical Twilight 6:31 AM CDT 8:01 PM CDT
Moon 5:57 AM CDT (11/1) 5:23 PM CDT (11/1)
Length of Visible Light 11h 21m
Length of Day
10h 24m
Waning Crescent, 4% of the Moon is Illuminated
Nov 1
Waning Crescent
Nov 3
New
Nov 9
First Quarter
Nov 17
Full
Nov 25
Last Quarter

Hourly Weather History & Observations

Time (CDT) Temp. Windchill Dew Point Humidity Pressure Visibility Wind Dir Wind Speed Gust Speed Precip Events Conditions
12:53 AM 42.1 °F 37.7 °F 35.1 °F 76% 29.68 in 10.0 mi West 6.9 mph - N/A   Clear
1:53 AM 42.1 °F 35.7 °F 34.0 °F 73% 29.70 in 10.0 mi West 11.5 mph - N/A   Clear
2:53 AM 42.1 °F 35.2 °F 34.0 °F 73% 29.72 in 10.0 mi West 12.7 mph - N/A   Clear
3:53 AM 41.0 °F 34.3 °F 34.0 °F 76% 29.73 in 10.0 mi West 11.5 mph - N/A   Clear
4:53 AM 39.9 °F 33.9 °F 34.0 °F 79% 29.73 in 10.0 mi West 9.2 mph - N/A   Clear
5:53 AM 39.9 °F 33.9 °F 34.0 °F 79% 29.76 in 10.0 mi West 9.2 mph - N/A   Clear
6:53 AM 39.0 °F 33.4 °F 34.0 °F 82% 29.81 in 10.0 mi West 8.1 mph - N/A   Mostly Cloudy
7:53 AM 43.0 °F 37.2 °F 36.0 °F 76% 29.83 in 10.0 mi WNW 10.4 mph - N/A   Overcast
8:53 AM 45.0 °F 38.9 °F 37.9 °F 76% 29.85 in 10.0 mi NW 12.7 mph - N/A   Mostly Cloudy
9:53 AM 48.0 °F - 39.0 °F 71% 29.88 in 10.0 mi NW 18.4 mph - N/A   Clear
10:53 AM 52.0 °F - 37.9 °F 59% 29.89 in 10.0 mi NW 24.2 mph 29.9 mph N/A   Clear
11:53 AM 55.0 °F - 37.0 °F 51% 29.91 in 10.0 mi NW 21.9 mph 29.9 mph N/A   Clear
12:53 PM 57.0 °F - 36.0 °F 45% 29.91 in 10.0 mi NW 24.2 mph 34.5 mph N/A   Mostly Cloudy
1:53 PM 59.0 °F - 35.1 °F 41% 29.90 in 10.0 mi NW 24.2 mph 33.4 mph N/A   Mostly Cloudy
2:53 PM 57.0 °F - 32.0 °F 39% 29.89 in 10.0 mi NW 25.3 mph 34.5 mph N/A   Scattered Clouds
3:53 PM 55.0 °F - 30.9 °F 40% 29.92 in 10.0 mi NW 29.9 mph 49.5 mph 0.00 in Rain Light Rain
4:14 PM 51.8 °F - 37.4 °F 58% 29.92 in 10.0 mi WNW 17.3 mph - 0.00 in Rain Light Rain
4:53 PM 53.1 °F - 32.0 °F 45% 29.94 in 10.0 mi NW 23.0 mph 39.1 mph 0.00 in   Partly Cloudy
5:53 PM 50.0 °F - 34.0 °F 54% 29.98 in 10.0 mi NNW 17.3 mph - N/A   Partly Cloudy
6:53 PM 50.0 °F - 32.0 °F 50% 30.01 in 10.0 mi NNW 16.1 mph 25.3 mph N/A   Overcast
7:53 PM 46.9 °F - 32.0 °F 56% 30.05 in 10.0 mi NNW 24.2 mph 35.7 mph N/A   Mostly Cloudy
8:53 PM 46.9 °F - 32.0 °F 56% 30.07 in 10.0 mi NNW 17.3 mph 27.6 mph N/A   Overcast
9:53 PM 42.1 °F 37.7 °F 32.0 °F 67% 30.09 in 10.0 mi WNW 6.9 mph - N/A   Clear
10:53 PM 39.9 °F 35.1 °F 32.0 °F 73% 30.11 in 10.0 mi WNW 6.9 mph - N/A   Clear
11:53 PM 37.9 °F 32.1 °F 30.9 °F 76% 30.11 in 10.0 mi WNW 8.1 mph - N/A   Clear